DELTA 1 DEB

Satellite information

Favourite Embed

Satellite Type and Status

DEBRISIN ORBIT

Key statistics

Satellite DELTA 1 DEB at a glance.

Uptime

18350

Days in orbit

Revolutions

≈ 12.2

Per day

Orbit

MEO

Medium Earth Orbit

Inclination

99.7

Latest

Satellite identification and parameters

Extended collection of information and parameters for DELTA 1 DEB.

Object identification

Identified? True

Debris? True

Object name: DELTA 1 DEB

International designator: 1975-052FN

Object number (NORAD): 21493

Object ID (CCSDS): 21493

Country: UNITED STATES OF AMERICA (US)

Current information (Y/N): Y

RCS size: SMALL

Orbital parameters

Period: 117.827 minutes

Inclination: 99.6752 deg

SMA: 7961.417 km

Apoapsis: 2186.816 km

Periapsis: 979.747 km

RAAN: 46.4299 deg

Eccentricy: 0.07580742

Argument of periapsis: 239.6809 deg

Mean anomaly: 284.2014 deg

Mean motion: 12.22129502 rev/day

Mean motion (dot): 0.00004576 rev/day2

B* drag term: 0.017184904 1/REarth

Two-line elements (TLE)

Creation date: Sept. 6, 2025, 2:09 a.m.

Reference frame: TEME

Reference center: EARTH

Epoch: Sept. 5, 2025, 10:18 p.m. UTC

TLE line 0: 0 DELTA 1 DEB

TLE line 1: 1 21493U 75052FN 25248.92984337 .00004576 00000-0 17185-1 0 9999

TLE line 2: 2 21493 99.6752 46.4299 0758074 239.6809 284.2014 12.22129502517685

Live tracking on map

Real-time ground track for satellite DELTA 1 DEB.

In-orbit conjunctions

A list of the most updated potential collisions computed for object DELTA 1 DEB.

Target Orbit TCA Probability of collision Miss distance Type
COSMOS 1244 LEO 2025-03-07 04:14:33 0.0002457857 371.0 (m) PAYLOAD

Associated space launch

Experimental meteorological satellite

DELTA 1 DEB was lifted into orbit during the mission ‘Delta 2910 | Nimbus 6’, on board a Delta 2910 space rocket.

The launch took place on June 12, 1975, 8:12 a.m. from Space Launch Complex 2W.

For more information about the launch, click the button.

Launch to space Delta 2910 | Nimbus 6
Delta 2910 | Nimbus 6

Agency: N/A

Status: Launch Successful

Launch date: June 12, 1975, 8:12 a.m. UTC

Rocket: Delta 2910

Launch pad: Space Launch Complex 2W

Location: Vandenberg SFB, CA, USA

...

Latest news about this satellite

There are no fresh news available about this satellite. Check back as we update our databases every day.


Newsletter sign-up

Weekly statistics, charts and insights to help you stay on top of the space industry.